CW2640 Weather Reports


time (UTC)temp
C
wind
direction
speed
KPH
gust
KPH
rain 1hr
cm
rain 24hr
cm
rain mn
cm
humidity
%
barometer
mb
20260510185929 25 80 0.0 0.0 0.00 0.00 0.00 64 1017.2
20260510182929 27 80 0.0 0.0 0.00 0.00 0.00 58 1017.4
20260510175927 26 80 0.0 0.0 0.00 0.00 0.00 61 1017.6
20260510172923 25 80 0.0 0.0 0.00 0.00 0.00 68 1017.9
20260510165919 25 80 0.0 0.0 0.00 0.00 0.00 70 1018.3
20260510162919 25 80 0.0 0.0 0.00 0.00 0.00 72 1018.6
20260510155919 23 80 0.0 0.0 0.00 0.00 0.00 78 1018.7
20260510152919 22 80 0.0 0.0 0.00 0.00 0.00 80 1018.3
20260510145916 21 80 0.0 0.0 0.00 0.00 0.00 89 1018.4
20260510142912 20 80 0.0 0.0 0.00 0.00 0.00 92 1018.3
20260510135913 19 80 0.0 0.0 0.00 0.00 0.00 96 1018.8
20260510132908 18 80 0.0 0.0 0.00 0.00 0.00 99 1018.3
20260510125908 17 80 0.0 0.0 0.00 0.00 0.00 99 1018.1
20260510122904 17 80 0.0 0.0 0.00 0.00 0.00 99 1017.8
20260510115900 17 80 0.0 0.0 0.00 0.00 0.00 99 1017.0
20260510112855 17 80 0.0 0.0 0.00 0.00 0.00 99 1016.4
20260510105851 17 80 0.0 0.0 0.00 0.00 0.00 99 1016.1
20260510102850 17 80 0.0 0.0 0.00 0.00 0.00 99 1015.5
20260510095849 17 80 0.0 0.0 0.00 0.00 0.00 99 1015.2
20260510092846 17 80 0.0 0.0 0.00 0.00 0.00 99 1015.3
20260510085841 17 80 0.0 0.0 0.00 0.00 0.00 99 1014.9
20260510082841 17 80 0.0 0.0 0.00 0.00 0.00 99 1014.6
20260510075839 17 80 0.0 0.0 0.00 0.00 0.00 99 1014.5
20260510072836 17 80 0.0 0.0 0.00 0.00 0.00 99 1014.4
20260510065833 17 80 0.0 0.0 0.00 0.00 0.00 99 1014.2
20260510062831 17 80 0.0 0.0 0.00 0.00 0.00 99 1014.6
20260510055826 18 80 0.0 0.0 0.00 0.00 0.00 99 1014.8
20260510052825 17 80 0.0 0.0 0.00 0.00 0.00 99 1014.8
20260510045823 17 80 0.0 0.0 0.00 0.00 0.00 99 1014.8
20260510042821 16 80 0.0 0.0 0.00 0.00 0.00 99 1015.0
20260510035817 17 80 0.0 0.0 0.00 0.00 0.00 99 1015.0
20260510032815 17 80 0.0 0.0 0.00 0.00 0.00 99 1015.0
20260510025815 17 80 0.0 0.0 0.00 0.00 0.00 99 1014.7
20260510022813 17 80 0.0 0.0 0.00 0.00 0.00 99 1014.4
20260510015807 18 80 0.0 0.0 0.00 0.00 0.00 99 1014.0
20260510012806 18 80 0.0 0.0 0.00 0.00 0.00 99 1013.2
20260510005804 19 84 0.0 0.0 0.00 0.00 0.00 99 1012.9
20260510002800 20 88 0.0 0.0 0.00 0.00 0.00 99 1012.7
20260509235755 20 89 0.0 0.0 0.00 0.00 0.00 96 1012.4
20260509232753 21 90 0.0 0.0 0.00 0.00 0.00 93 1012.2
20260509225750 21 90 0.0 0.0 0.00 0.00 0.00 89 1012.2
20260509222748 22 89 0.0 0.0 0.00 0.00 0.00 87 1012.1
20260509215748 22 89 0.0 0.0 0.00 0.00 0.00 84 1011.9
20260509212746 22 83 0.0 0.0 0.00 0.00 0.00 83 1011.7
20260509205746 22 81 0.0 0.0 0.00 0.00 0.00 82 1011.4
20260509202742 23 80 0.0 0.0 0.00 0.00 0.00 80 1011.9
20260509195740 23 80 0.0 0.0 0.00 0.00 0.00 79 1011.8
20260509192737 22 80 0.0 0.0 0.00 0.00 0.00 81 1012.3